Tracking 33197 objects as of 18-Feb-2026
HD Live streaming from Space Station
objects crossing your sky now

TABLETSAT AURORA

Track TABLETSAT AURORA now!
10-day predictions
TABLETSAT AURORA is classified as:


NORAD ID: 40017
Int'l Code: 2014-033H
Perigee: 518.2 km
Apogee: 533.0 km
Inclination: 98.0 °
Period: 95.0 minutes
Semi major axis: 6896 km
RCS: Unknown
Launch date: June 19, 2014
Source: Commonwealth of Independent States (former USSR) (CIS)
Launch site: Orenburg, Russia (OREN)

Uplink (MHz):
Downlink (MHz): 435.550/436.100
Beacon (MHz): 437.050
Mode: 9600bps GMSK D-STAR
Call sign:
Status: Inactive

Your satellite tracking list
Your tracking list is empty




NASA's NSSDC Master Catalog

Two Line Element Set (TLE):
1 40017U 14033H   26049.21541810  .00004406  00000-0  23415-3 0  9998
2 40017  98.0378 116.3719 0010738 260.9375  99.0641 15.15828223637178
Source of the keplerian elements: AFSPC